Weather History for Grand Canyon, AZ

Change the Weather History Date:

Thursday, November 21, 2013

  Actual Average Record
Temperature  
Mean Temperature 40 °F -  
Max Temperature 45 °F 48 °F 66 °F (2002)
Min Temperature 35 °F 17 °F 4 °F (1985)
Degree Days  
Heating Degree Days 25    
Moisture  
Dew Point 38 °F    
Average Humidity 96    
Maximum Humidity 100    
Minimum Humidity 80    
Precipitation  
Precipitation 0.21 in - - ()
Sea Level Pressure  
Sea Level Pressure 29.95 in    
Wind  
Wind Speed 6 mph (SSW)    
Max Wind Speed 10 mph    
Max Gust Speed 17 mph    
Visibility 8 miles    
Events Rain    
Averages and records for this station are not official NWS values.
T = Trace of Precipitation, MM = Missing Value Source: NWS Daily Summary

Daily Weather History Graph

Daily Weather History Graph

Search for Another Location

Airport:

Trip Planner

Search our weather history database for the weather conditions in past years. The results will help you decide how hot, cold, wet, or windy it might be!

Date:

Astronomy

Nov. 21, 2013 Rise Set
Actual Time 7:11 AM MST 5:17 PM MST
Civil Twilight 6:43 AM MST 5:45 PM MST
Nautical Twilight 6:12 AM MST 6:16 PM MST
Astronomical Twilight 5:41 AM MST 6:47 PM MST
Moon 8:56 PM MST (11/21) 10:20 AM MST (11/21)
Length of Visible Light 11h 01m
Length of Day
10h 06m
Waning Gibbous, 85% of the Moon is Illuminated
Nov 21
Waning Gibbous
Nov 25
Last Quarter
Dec 2
New
Dec 9
First Quarter
Dec 17
Full

Hourly Weather History & Observations

Time (MST) Temp. Windchill Dew Point Humidity Pressure Visibility Wind Dir Wind Speed Gust Speed Precip Events Conditions
12:54 AM 39.9 °F 35.8 °F 39.9 °F 100% 29.88 in 10.0 mi SW 5.8 mph - N/A   Overcast
1:19 AM 39.2 °F 35.0 °F 39.2 °F 100% 29.96 in 10.0 mi SSW 5.8 mph - N/A   Overcast
1:54 AM 39.0 °F 33.4 °F 39.0 °F 100% 29.87 in 10.0 mi SSW 8.1 mph - N/A   Overcast
2:06 AM 39.2 °F 33.0 °F 39.2 °F 100% 29.95 in 9.0 mi SSW 9.2 mph - N/A   Overcast
2:15 AM 39.2 °F 33.6 °F 39.2 °F 100% 29.96 in 8.0 mi SW 8.1 mph - N/A   Overcast
2:54 AM 39.0 °F 33.4 °F 39.0 °F 100% 29.88 in 8.0 mi SSW 8.1 mph - N/A   Overcast
3:12 AM 37.4 °F 33.8 °F 37.4 °F 100% 29.96 in 7.0 mi SW 4.6 mph - N/A   Overcast
3:54 AM 37.0 °F 34.5 °F 37.0 °F 100% 29.88 in 7.0 mi SW 3.5 mph - N/A   Overcast
4:02 AM 37.4 °F - 37.4 °F 100% 29.95 in 6.0 mi Calm Calm - N/A   Overcast
4:54 AM 37.0 °F 34.5 °F 37.0 °F 100% 29.88 in 7.0 mi SSW 3.5 mph - N/A   Mostly Cloudy
5:08 AM 35.6 °F 30.7 °F 35.6 °F 100% 29.95 in 6.0 mi SSW 5.8 mph - N/A   Mostly Cloudy
5:49 AM 37.4 °F 32.8 °F 37.4 °F 100% 29.96 in 7.0 mi SW 5.8 mph - N/A   Mostly Cloudy
5:54 AM 37.9 °F 32.7 °F 37.9 °F 100% 29.88 in 7.0 mi SW 6.9 mph - N/A   Mostly Cloudy
6:18 AM 39.2 °F 34.2 °F 39.2 °F 100% 29.96 in 7.0 mi SSW 6.9 mph - N/A   Overcast
6:47 AM 37.4 °F 33.8 °F 37.4 °F 100% 29.97 in 7.0 mi SSW 4.6 mph - 0.00 in   Mostly Cloudy
6:54 AM 37.0 °F 34.5 °F 37.0 °F 100% 29.89 in 6.0 mi South 3.5 mph - 0.00 in   Scattered Clouds
7:24 AM 35.6 °F 32.8 °F 35.6 °F 100% 29.98 in 5.0 mi South 3.5 mph - N/A   Mostly Cloudy
7:54 AM 37.9 °F 35.5 °F 37.9 °F 100% 29.91 in 5.0 mi South 3.5 mph - N/A   Mostly Cloudy
8:54 AM 39.9 °F 35.8 °F 39.9 °F 100% 29.91 in 8.0 mi South 5.8 mph - 0.01 in   Mostly Cloudy
9:54 AM 43.0 °F 38.8 °F 39.9 °F 89% 29.91 in 10.0 mi Variable 6.9 mph 16.1 mph N/A   Mostly Cloudy
10:54 AM 43.0 °F 37.7 °F 37.9 °F 82% 29.92 in 10.0 mi SSW 9.2 mph - N/A   Overcast
11:54 AM 44.1 °F 39.5 °F 39.9 °F 85% 29.89 in 9.0 mi South 8.1 mph - 0.00 in Rain Light Rain
12:54 PM 43.0 °F 37.7 °F 41.0 °F 93% 29.88 in 10.0 mi SSW 9.2 mph - 0.00 in Rain Light Rain
1:54 PM 45.0 °F 40.1 °F 39.9 °F 82% 29.86 in 10.0 mi SSW 9.2 mph - 0.00 in   Mostly Cloudy
2:54 PM 43.0 °F 37.2 °F 37.0 °F 80% 29.88 in 10.0 mi South 10.4 mph - N/A   Mostly Cloudy
3:54 PM 43.0 °F 38.8 °F 39.0 °F 86% 29.89 in 10.0 mi SSE 6.9 mph - 0.00 in   Mostly Cloudy
4:54 PM 41.0 °F 34.7 °F 39.0 °F 93% 29.93 in 4.0 mi South 10.4 mph 17.3 mph 0.00 in Rain Light Rain
5:54 PM 39.0 °F 34.0 °F 37.0 °F 93% 29.94 in 6.0 mi South 6.9 mph - 0.03 in   Overcast
6:39 PM 39.2 °F 33.0 °F 37.4 °F 93% 30.02 in 5.0 mi South 9.2 mph - 0.02 in Rain Light Rain
6:54 PM 39.0 °F 33.4 °F 37.0 °F 93% 29.96 in 10.0 mi SSE 8.1 mph - 0.02 in   Overcast
7:51 PM 37.4 °F 33.8 °F 37.4 °F 100% 30.03 in 10.0 mi Variable 4.6 mph - 0.02 in Rain Light Rain
7:54 PM 37.9 °F 35.5 °F 37.0 °F 97% 29.97 in 10.0 mi ESE 3.5 mph - 0.02 in Rain Light Rain
8:42 PM 37.4 °F 33.8 °F 35.6 °F 93% 30.04 in 6.0 mi WNW 4.6 mph - 0.01 in Rain Light Rain
8:51 PM 35.6 °F 29.2 °F 35.6 °F 100% 30.05 in 3.0 mi WSW 8.1 mph 16.1 mph 0.05 in Rain Heavy Rain
8:54 PM 36.0 °F 30.3 °F 35.1 °F 97% 29.99 in 2.0 mi WSW 6.9 mph - 0.06 in Rain Heavy Rain
9:10 PM 35.6 °F - 35.6 °F 100% 30.06 in 2.0 mi Calm Calm - 0.05 in Rain Rain
9:15 PM 35.6 °F - 35.6 °F 100% 30.05 in 3.0 mi Calm Calm - 0.05 in Rain Light Rain
9:43 PM 37.4 °F - 35.6 °F 93% 30.05 in 10.0 mi Calm Calm - 0.07 in   Overcast
9:54 PM 36.0 °F 29.0 °F 35.1 °F 97% 29.97 in 8.0 mi East 9.2 mph - 0.07 in Rain Light Rain
10:54 PM 36.0 °F 33.3 °F 36.0 °F 100% 29.96 in 10.0 mi ENE 3.5 mph - 0.00 in   Overcast
11:54 PM 37.9 °F 34.4 °F 37.9 °F 100% 29.96 in 10.0 mi NE 4.6 mph - 0.00 in   Overcast